Location: Bouillancy
(49.1149°N, 2.9308°E)
Time: 22:42:30
(UTC+00:00)

Cosmos 2278 Rocket - Pass Details

Date: 30 September 2020
Orbit: 841 x 845 km, 71.0° (Epoch: 24 October)

Event Time Altitude Azimuth Distance (km) Brightness Sun altitude
Rises 18:15:53 0° 178° (S) 3,383 5.3 -8.6°
Reaches altitude 10° 18:18:30 10° 170° (S) 2,453 4.5 -9.0°
Maximum altitude 18:23:32 35° 106° (ESE) 1,335 2.7 -9.8°
Drops below altitude 10° 18:28:37 10° 43° (NE) 2,470 4.3 -10.7°
Sets 18:31:14 0° 35° (NE) 3,409 5.1 -11.1°
